Weather reports worldwide

Advertisment
Grazzanise, Italy (16253): temperature & dewpoint: 11.07.2019 07:00:00 - 17.07.2019 07:00:00 (CEST)Grazzanise, Italy (16253): wind speed: 11.07.2019 07:00:00 - 17.07.2019 07:00:00 (CEST)Grazzanise, Italy (16253): wind direction: 11.07.2019 07:00:00 - 17.07.2019 07:00:00 (CEST)Grazzanise, Italy (16253): reduced air pressure: 11.07.2019 07:00:00 - 17.07.2019 07:00:00 (CEST)Grazzanise, Italy (16253): visibility: 11.07.2019 07:00:00 - 17.07.2019 07:00:00 (CEST)Grazzanise, Italy (16253): sunshine duration: 11.07.2019 07:00:00 - 17.07.2019 07:00:00 (CEST)
Date & Time tt [°C] td [°C] ff [km/h] ff [kn] dd ppp [hPa] vv [km] sd [min]
17.07.2019 07:00:00 16,0 15,0 4 2 NNE - 10 -
17.07.2019 06:00:00 16,0 14,0 9 5 NE - 10 -
17.07.2019 05:00:00 15,8 15,5 4 2 NNW 1012,3 15 0
17.07.2019 04:00:00 17,0 14,0 4 2 N - 10 -
17.07.2019 03:00:00 18,0 15,0 9 5 NE - 10 -
17.07.2019 02:00:00 18,0 16,0 8 4 N 1012,5 15 0
17.07.2019 01:00:00 18,0 16,0 4 2 NE - 10 -
17.07.2019 00:00:00 21,0 16,0 5 3 ENE - 10 -
16.07.2019 23:00:00 21,6 16,4 5 3 W 1011,5 15 0
16.07.2019 22:00:00 23,0 16,0 0 0 N - 10 -
16.07.2019 21:00:00 26,0 18,0 0 0 N - 10 -
16.07.2019 20:00:00 28,4 18,8 13 7 W 1009,5 20 54
16.07.2019 19:00:00 30,0 19,0 5 3 SSW - 10 -
16.07.2019 18:00:00 30,0 18,0 8 4 SSE - 10 -
16.07.2019 17:00:00 29,0 17,5 11 6 ESE 1008,2 20 0
16.07.2019 16:00:00 30,0 16,0 16 9 E - 10 -
16.07.2019 15:00:00 30,0 14,0 24 13 ENE - 10 -
16.07.2019 14:00:00 30,0 14,9 15 8 ENE 1008,0 20 60
16.07.2019 13:00:00 31,0 15,0 29 16 ENE - 10 -
16.07.2019 12:00:00 30,0 15,0 16 9 ENE - 10 -
16.07.2019 11:00:00 28,0 16,6 11 6 NE 1007,4 20 60
16.07.2019 10:00:00 27,0 17,0 18 10 ENE - 10 -
16.07.2019 09:00:00 26,0 18,0 16 9 NE - 10 -
16.07.2019 08:00:00 23,8 17,3 18 10 ENE 1006,3 10 0
16.07.2019 07:00:00 24,0 17,0 21 11 ENE - 10 -
16.07.2019 06:00:00 24,0 16,0 28 15 ENE - 10 -
16.07.2019 05:00:00 23,8 16,8 21 11 ENE 1006,4 18 -
16.07.2019 04:00:00 24,0 17,0 15 8 ENE - 10 -
16.07.2019 03:00:00 25,0 17,0 31 17 ENE - 10 -
16.07.2019 02:00:00 25,0 17,2 28 15 ENE 1006,6 15 -
16.07.2019 01:00:00 25,0 17,0 26 14 ENE - 10 -
16.07.2019 00:00:00 25,0 16,0 22 12 ENE - 10 -
15.07.2019 23:00:00 25,8 15,5 22 12 ENE 1007,0 20 -
15.07.2019 22:00:00 26,0 16,0 15 8 NE - 10 -
15.07.2019 21:00:00 27,0 17,0 21 11 ENE - 10 -
15.07.2019 20:00:00 28,8 18,0 21 11 ENE 1006,2 25 6
15.07.2019 19:00:00 30,0 17,0 28 15 ENE - 10 -
15.07.2019 18:00:00 30,0 15,0 11 6 SW - 10 -
15.07.2019 17:00:00 32,4 14,1 18 10 SW 1005,6 20 60
15.07.2019 16:00:00 33,0 14,0 9 5 E - 10 -
15.07.2019 15:00:00 33,0 13,0 11 6 E - 10 -
15.07.2019 14:00:00 31,4 13,2 15 8 E 1006,3 20 60
15.07.2019 13:00:00 31,0 13,0 16 9 E - 10 -
15.07.2019 12:00:00 30,0 15,0 15 8 ENE - 10 -
15.07.2019 11:00:00 28,0 14,6 16 9 NE 1006,8 20 54
15.07.2019 10:00:00 26,0 16,0 21 11 NE - 10 -
15.07.2019 09:00:00 23,0 15,0 11 6 NE - 10 -
15.07.2019 08:00:00 21,6 15,0 16 9 NE 1006,8 20 0
15.07.2019 07:00:00 21,0 14,0 18 10 NE - 10 -
15.07.2019 06:00:00 21,0 15,0 18 10 NE - 10 -
15.07.2019 05:00:00 21,4 14,6 9 5 ENE 1006,5 20 -
15.07.2019 04:00:00 21,0 14,0 9 5 NNE - 10 -
15.07.2019 03:00:00 21,0 15,0 9 5 NNE - 10 -
15.07.2019 02:00:00 22,0 14,4 8 4 NNE 1009,3 20 -
15.07.2019 01:00:00 22,0 15,0 9 5 ENE - 10 -
15.07.2019 00:00:00 23,0 16,0 9 5 E - 10 -
14.07.2019 23:00:00 23,0 16,1 9 5 ENE 1009,0 20 -
14.07.2019 22:00:00 25,0 18,0 9 5 ENE - 10 -
14.07.2019 21:00:00 25,0 20,0 4 2 WNW - 10 -
14.07.2019 20:00:00 28,0 18,1 9 5 W 1008,2 20 48
14.07.2019 19:00:00 30,0 19,0 9 5 W - 10 -
14.07.2019 18:00:00 30,0 18,0 16 9 WNW - 10 -
14.07.2019 17:00:00 32,2 14,4 11 6 SSE 1008,9 25 60
14.07.2019 16:00:00 32,0 12,0 16 9 ESE - 10 -
14.07.2019 15:00:00 32,0 17,0 8 4 SE - 10 -
14.07.2019 14:00:00 31,4 12,7 5 3 NE 1009,9 25 60
14.07.2019 13:00:00 31,0 13,0 9 5 NE - 10 -
14.07.2019 12:00:00 30,0 12,0 13 7 NE - 10 -
14.07.2019 11:00:00 28,6 12,5 16 9 ENE 1010,3 25 60
14.07.2019 10:00:00 27,0 13,0 21 11 ENE - 10 -
14.07.2019 09:00:00 26,0 15,0 18 10 ENE - 10 -
14.07.2019 08:00:00 23,4 17,4 13 7 ENE 1009,3 25 -
14.07.2019 07:00:00 21,0 19,0 4 2 NNE - 10 -
14.07.2019 06:00:00 21,0 19,0 5 3 NNE - 10 -
14.07.2019 05:00:00 20,6 18,9 5 3 NNE 1008,8 20 -
14.07.2019 04:00:00 22,0 20,0 8 4 NNE - 10 -
14.07.2019 03:00:00 23,0 21,0 9 5 NNE - 10 -
14.07.2019 02:00:00 22,8 20,5 9 5 NNE 1008,8 20 -
14.07.2019 01:00:00 23,0 21,0 11 6 NE - 10 -
14.07.2019 00:00:00 24,0 22,0 9 5 NNE - 10 -
13.07.2019 23:00:00 24,2 21,1 8 4 NNE 1008,1 20 -
13.07.2019 22:00:00 25,0 21,0 8 4 NNE - 10 -
13.07.2019 21:00:00 27,0 23,0 15 8 NE - 10 -
13.07.2019 20:00:00 28,8 23,5 8 4 WSW 1007,5 20 60
13.07.2019 19:00:00 29,0 24,0 15 8 WSW - 10 -
13.07.2019 18:00:00 30,0 24,0 22 12 WSW - 10 -
13.07.2019 17:00:00 30,4 23,8 18 10 WSW 1007,4 20 60
13.07.2019 16:00:00 30,0 25,0 24 13 W - 10 -
13.07.2019 15:00:00 30,0 25,0 28 15 WSW - 10 -
13.07.2019 14:00:00 31,0 23,9 28 15 SW 1008,8 20 48
13.07.2019 13:00:00 30,0 25,0 24 13 SSW - 10 -
13.07.2019 12:00:00 31,0 23,0 22 12 SW - 10 -
13.07.2019 11:00:00 30,0 23,4 15 8 SW 1009,8 20 54
13.07.2019 10:00:00 29,0 24,0 5 3 SSE - 10 -
13.07.2019 09:00:00 27,0 24,0 5 3 E - 10 -
13.07.2019 08:00:00 25,0 23,3 5 3 E 1010,5 15 48
13.07.2019 07:00:00 21,0 20,0 4 2 NE - 10 -
13.07.2019 06:00:00 21,0 20,0 4 2 N - 10 -
13.07.2019 05:00:00 21,0 19,3 8 4 NNW 1011,2 10 0
13.07.2019 04:00:00 22,0 21,0 4 2 N - 10 -
13.07.2019 03:00:00 23,0 22,0 2 1 NE - 10 -
13.07.2019 02:00:00 23,0 22,2 2 1 NE 1011,2 10 0
13.07.2019 01:00:00 24,0 23,0 4 2 NNE - 10 -
13.07.2019 00:00:00 24,0 22,0 4 2 NE - 10 -
12.07.2019 23:00:00 25,0 23,3 0 0 N 1011,2 10 0
12.07.2019 22:00:00 25,0 23,0 0 0 N - 10 -
12.07.2019 21:00:00 26,0 23,0 9 5 WSW - 10 -
12.07.2019 20:00:00 28,0 22,9 11 6 WSW 1011,0 15 30
12.07.2019 19:00:00 29,0 22,0 16 9 SW - 10 -
12.07.2019 18:00:00 29,0 22,0 16 9 SW - 10 -
12.07.2019 17:00:00 29,8 21,7 18 10 SW 1011,3 15 -
12.07.2019 16:00:00 29,0 24,0 21 11 SSW - 10 -
12.07.2019 15:00:00 30,0 22,0 21 11 SSW - 10 -
12.07.2019 14:00:00 29,6 21,0 16 9 SW 1012,1 15 -
12.07.2019 13:00:00 30,0 21,0 18 10 SW - 10 -
12.07.2019 12:00:00 30,0 21,0 16 9 WSW - 10 -
12.07.2019 11:00:00 28,8 22,3 9 5 WSW 1012,5 15 -
12.07.2019 10:00:00 28,0 22,0 5 3 S - 10 -
12.07.2019 09:00:00 26,0 21,0 5 3 E - 10 -
12.07.2019 08:00:00 22,4 21,4 8 4 NE 1012,9 15 -
12.07.2019 07:00:00 21,0 20,0 4 2 NE - 10 -
12.07.2019 06:00:00 20,0 19,0 4 2 NE - 10 -
12.07.2019 05:00:00 20,6 20,3 5 3 N 1012,2 12 0
12.07.2019 04:00:00 21,0 21,0 4 2 NNE - 10 -
12.07.2019 03:00:00 21,0 21,0 4 2 N - 10 -
12.07.2019 02:00:00 22,2 21,9 4 2 E 1012,2 12 0
12.07.2019 01:00:00 23,0 22,0 4 2 WSW - 10 -
12.07.2019 00:00:00 23,0 22,0 5 3 S - 10 -
11.07.2019 23:00:00 23,4 21,1 5 3 SSW 1012,1 15 0
11.07.2019 22:00:00 25,0 21,0 5 3 WSW - 10 -
11.07.2019 21:00:00 25,0 20,0 9 5 W - 10 -
11.07.2019 20:00:00 27,2 19,8 15 8 W 1011,5 15 54
11.07.2019 19:00:00 28,0 18,0 18 10 W - 10 -
11.07.2019 18:00:00 29,0 16,0 16 9 W - 10 -
11.07.2019 17:00:00 29,0 12,0 16 9 W 1011,6 20 60
11.07.2019 16:00:00 31,0 10,0 5 3 SSE - 10 -
11.07.2019 15:00:00 31,0 9,0 13 7 ESE - 10 -
11.07.2019 14:00:00 29,8 8,8 5 3 NNE 1012,2 20 60
11.07.2019 13:00:00 29,0 10,0 8 4 NE - 10 -
11.07.2019 12:00:00 28,0 10,0 15 8 ENE - 10 -
11.07.2019 11:00:00 27,0 12,3 5 3 ENE 1012,2 20 60
11.07.2019 10:00:00 26,0 15,0 13 7 E - 10 -
11.07.2019 09:00:00 24,0 16,0 13 7 NE - 10 -
11.07.2019 08:00:00 21,0 15,3 8 4 NE 1012,2 15 0
11.07.2019 07:00:00 20,0 16,0 5 3 NE - 10 -

tt = temperature
td = dewpoint
ff = wind speed
dd = wind direction
ppp = reduced air pressure
vv = visibility
sd = sunshine duration

Next stations